GW2586 Weather Reports


Display with metric or nautical units.
time (UTC)temp
F
wind
direction
speed
MPH
gust
MPH
rain 1hr
in
rain 24hr
in
rain mn
in
humidity
%
barometer
mb
20260510191542 65 55 2.0 10.0 0.00 0.05 0.00 64 1012.4
20260510190044 66 111 5.0 13.0 0.00 0.05 0.00 64 1012.6
20260510184549 66 92 2.0 9.0 0.00 0.12 0.00 69 1012.5
20260510183038 64 253 3.0 9.0 0.00 0.12 0.00 69 1012.5
20260510181538 63 124 2.0 7.0 0.00 0.12 0.00 75 1012.7
20260510180037 61 215 4.0 9.0 0.00 0.12 0.00 77 1012.9
20260510174542 62 91 3.0 9.0 0.00 0.16 0.00 73 1012.3
20260510173041 66 191 5.0 8.0 0.00 0.16 0.00 65 1012.1
20260510171540 66 142 4.0 10.0 0.00 0.16 0.00 69 1012.2
20260510170038 65 197 4.0 13.0 0.00 0.16 0.00 70 1012.1
20260510164539 64 138 2.0 7.0 0.00 0.19 0.00 71 1012.3
20260510163037 63 187 5.0 8.0 0.00 0.19 0.00 74 1012.6
20260510161539 62 155 4.0 8.0 0.00 0.19 0.00 75 1012.7
20260510160049 63 253 1.0 6.0 0.00 0.19 0.00 74 1012.6
20260510154540 63 203 2.0 8.0 0.00 0.21 0.00 73 1012.7
20260510153040 65 205 3.0 11.0 0.00 0.21 0.00 72 1012.7
20260510151536 63 158 6.0 12.0 0.00 0.21 0.00 75 1012.6
20260510150043 62 184 3.0 9.0 0.00 0.21 0.00 77 1012.3
20260510144540 61 153 3.0 11.0 0.00 0.22 0.00 80 1012.3
20260510143038 60 217 4.0 10.0 0.00 0.22 0.00 81 1012.2
20260510141540 59 212 0.0 11.0 0.00 0.22 0.00 85 1012.2
20260510140040 58 105 3.0 9.0 0.00 0.22 0.00 86 1012.2
20260510134540 57 65 1.0 6.0 0.00 0.23 0.00 85 1012.2
20260510133036 57 187 3.0 7.0 0.00 0.23 0.00 86 1012.3
20260510131541 57 221 2.0 11.0 0.00 0.23 0.00 88 1012.4
20260510130039 55 128 3.0 6.0 0.00 0.23 0.00 89 1012.6
20260510124543 55 128 3.0 8.0 0.00 0.23 0.00 91 1012.3
20260510123037 53 240 0.0 5.0 0.00 0.23 0.00 94 1012.0
20260510121543 52 22 2.0 4.0 0.00 0.23 0.00 94 1012.0
20260510120039 51 152 0.0 4.0 0.00 0.23 0.00 95 1011.9
20260510114543 50 0 0.0 2.0 0.00 0.23 0.00 95 1011.9
20260510113041 50 0 0.0 3.0 0.00 0.23 0.00 95 1011.9
20260510111540 50 222 0.0 6.0 0.00 0.23 0.00 95 1012.0
20260510110037 50 273 0.0 3.0 0.00 0.23 0.00 95 1011.7
20260510104539 50 215 2.0 11.0 0.00 0.30 0.00 95 1011.7
20260510103048 50 82 1.0 5.0 0.00 0.30 0.00 95 1011.5
20260510101540 50 0 0.0 5.0 0.00 0.30 0.00 96 1011.3
20260510100041 49 0 0.0 6.0 0.00 0.30 0.00 96 1011.0
20260510094545 49 300 0.0 4.0 0.00 0.42 0.00 96 1010.8
20260510093041 49 150 2.0 5.0 0.00 0.42 0.00 96 1010.8
20260510091537 49 283 0.0 3.0 0.00 0.42 0.00 95 1010.4
20260510090039 49 0 0.0 3.0 0.00 0.42 0.00 95 1010.2
20260510084542 49 323 0.0 6.0 0.00 0.52 0.00 95 1009.7
20260510083041 49 205 1.0 9.0 0.00 0.52 0.00 95 1010.1
20260510081543 49 193 3.0 7.0 0.00 0.52 0.00 95 1010.7
20260510080040 49 192 1.0 6.0 0.00 0.52 0.00 95 1011.0
20260510074537 49 200 0.0 6.0 0.00 0.55 0.00 95 1011.3
20260510073044 49 296 0.0 7.0 0.00 0.55 0.00 95 1011.5
20260510071542 49 0 0.0 5.0 0.00 0.55 0.00 95 1011.5
20260510070046 49 214 1.0 3.0 0.00 0.55 0.00 95 1011.3
20260510064538 49 0 0.0 4.0 0.00 0.55 0.00 95 1010.9
20260510063039 49 292 0.0 5.0 0.00 0.55 0.00 95 1010.7
20260510061536 49 0 1.0 5.0 0.00 0.55 0.00 95 1010.7
20260510060037 49 0 0.0 4.0 0.00 0.55 0.00 95 1010.6
20260510054551 49 0 0.0 7.0 0.00 0.55 0.00 95 1010.9
20260510053043 47 346 1.0 2.0 0.00 0.55 0.00 95 1010.8
20260510051540 48 0 0.0 2.0 0.00 0.55 0.00 94 1010.8
20260510050043 49 0 0.0 2.0 0.00 0.55 0.00 94 1010.8
20260510044542 49 352 0.0 2.0 0.00 0.55 0.00 94 1010.7
20260510043036 49 278 1.0 7.0 0.00 0.55 0.00 94 1010.6
20260510041553 49 0 1.0 4.0 0.00 0.55 0.00 94 1010.7
20260510040043 49 0 0.0 2.0 0.00 0.55 0.00 94 1010.9
20260510034542 49 274 0.0 2.0 0.00 0.55 0.55 92 1010.9
20260510033045 50 0 0.0 5.0 0.00 0.55 0.55 92 1010.6
20260510031549 50 0 3.0 6.0 0.00 0.55 0.55 93 1010.6
20260510030038 50 5 0.0 4.0 0.00 0.55 0.55 93 1010.5
20260510024541 50 0 0.0 0.0 0.00 0.55 0.55 92 1010.7
20260510023040 51 0 0.0 2.0 0.00 0.55 0.55 92 1010.4
20260510021541 51 245 0.0 4.0 0.00 0.55 0.55 92 1010.7
20260510020037 50 0 0.0 4.0 0.00 0.55 0.55 92 1010.8
20260510014536 50 19 0.0 3.0 0.00 0.55 0.55 93 1010.6
20260510013042 50 0 0.0 5.0 0.00 0.55 0.55 93 1010.7
20260510011538 50 340 1.0 4.0 0.00 0.55 0.55 93 1010.6
20260510010038 51 314 0.0 2.0 0.00 0.55 0.55 92 1010.7
20260510004545 50 0 0.0 2.0 0.00 0.55 0.55 92 1010.4
20260510003038 50 0 0.0 4.0 0.00 0.55 0.55 92 1010.0
20260510001537 51 0 0.0 3.0 0.00 0.55 0.55 91 1009.9
20260510000037 51 0 2.0 6.0 0.00 0.55 0.55 91 1009.7
20260509234541 51 357 2.0 6.0 0.00 0.55 0.55 91 1009.5
20260509233043 51 47 1.0 5.0 0.00 0.55 0.55 91 1009.3
20260509231544 52 0 0.0 8.0 0.00 0.55 0.55 91 1009.4
20260509230040 51 134 2.0 9.0 0.00 0.55 0.55 91 1009.4
20260509224537 51 352 2.0 6.0 0.00 0.55 0.55 92 1009.5
20260509223047 51 262 1.0 9.0 0.00 0.55 0.55 93 1009.6
20260509221541 51 155 1.0 6.0 0.00 0.55 0.55 93 1009.7
20260509220041 51 307 2.0 8.0 0.00 0.55 0.55 94 1009.7
20260509214541 51 259 1.0 6.0 0.00 0.55 0.55 94 1009.7
20260509213038 51 0 2.0 8.0 0.00 0.55 0.55 94 1009.7
20260509211540 51 0 2.0 6.0 0.00 0.55 0.55 94 1009.9
20260509210049 51 229 0.0 9.0 0.00 0.55 0.55 94 1009.9
20260509204543 51 262 1.0 8.0 0.01 0.55 0.55 94 1010.1
20260509203040 51 0 2.0 8.0 0.02 0.55 0.55 94 1010.3
20260509201539 51 197 3.0 9.0 0.03 0.55 0.55 94 1010.4
20260509200047 51 23 3.0 12.0 0.05 0.55 0.55 95 1010.5
20260509194539 51 188 6.0 13.0 0.07 0.54 0.54 95 1010.6
20260509193044 51 183 3.0 11.0 0.08 0.52 0.52 95 1010.8